TimeEDT,TemperatureF,Dew PointF,Humidity,Sea Level PressureIn,VisibilityMPH,Wind Direction,Wind SpeedMPH,Gust SpeedMPH,PrecipitationIn,Events,Conditions,WindDirDegrees,DateUTC
12:53 AM,37.0,30.9,79,30.29,10.0,Calm,Calm,-,N/A,,Clear,0,2013-03-28 04:53:00
1:53 AM,34.0,30.9,89,30.29,10.0,NW,3.5,-,N/A,,Clear,320,2013-03-28 05:53:00
2:53 AM,35.1,30.9,85,30.28,10.0,Calm,Calm,-,N/A,,Clear,0,2013-03-28 06:53:00
3:53 AM,35.1,30.0,82,30.27,10.0,Calm,Calm,-,N/A,,Clear,0,2013-03-28 07:53:00
4:53 AM,34.0,30.0,85,30.27,10.0,Calm,Calm,-,N/A,,Clear,0,2013-03-28 08:53:00
5:53 AM,33.1,28.9,85,30.27,10.0,Calm,Calm,-,N/A,,Clear,0,2013-03-28 09:53:00
6:53 AM,32.0,28.9,88,30.29,10.0,Calm,Calm,-,N/A,,Clear,0,2013-03-28 10:53:00
7:53 AM,37.0,30.9,79,30.30,10.0,NW,5.8,-,N/A,,Clear,320,2013-03-28 11:53:00
8:53 AM,46.0,32.0,58,30.31,10.0,NNW,6.9,-,N/A,,Clear,340,2013-03-28 12:53:00
9:53 AM,54.0,30.9,41,30.32,10.0,North,6.9,-,N/A,,Clear,10,2013-03-28 13:53:00
10:53 AM,59.0,27.0,29,30.33,10.0,North,6.9,-,N/A,,Clear,360,2013-03-28 14:53:00
11:53 AM,62.1,27.0,26,30.33,10.0,NW,6.9,-,N/A,,Clear,310,2013-03-28 15:53:00
12:53 PM,64.0,27.0,25,30.31,10.0,Variable,3.5,-,N/A,,Clear,0,2013-03-28 16:53:00
1:53 PM,66.0,28.0,24,30.29,10.0,North,10.4,-,N/A,,Clear,360,2013-03-28 17:53:00
2:53 PM,68.0,28.9,23,30.26,10.0,Calm,Calm,-,N/A,,Clear,0,2013-03-28 18:53:00
3:53 PM,69.1,27.0,21,30.23,10.0,West,5.8,-,N/A,,Clear,270,2013-03-28 19:53:00
4:53 PM,70.0,27.0,20,30.22,10.0,NW,11.5,16.1,N/A,,Clear,320,2013-03-28 20:53:00
5:53 PM,69.1,27.0,21,30.22,10.0,NNE,10.4,-,N/A,,Clear,20,2013-03-28 21:53:00
6:53 PM,66.9,28.0,23,30.23,10.0,NNW,5.8,-,N/A,,Clear,340,2013-03-28 22:53:00
7:53 PM,62.1,30.0,30,30.25,10.0,Calm,Calm,-,N/A,,Clear,0,2013-03-28 23:53:00
8:53 PM,53.1,35.1,50,30.27,10.0,Calm,Calm,-,N/A,,Clear,0,2013-03-29 00:53:00
9:53 PM,48.9,36.0,61,30.28,10.0,Calm,Calm,-,N/A,,Clear,0,2013-03-29 01:53:00
10:53 PM,44.1,36.0,73,30.31,10.0,Calm,Calm,-,N/A,,Clear,0,2013-03-29 02:53:00
11:53 PM,44.1,36.0,73,30.32,10.0,Calm,Calm,-,N/A,,Clear,0,2013-03-29 03:53:00